GW6944 Weather Reports


time (UTC)temp
C
wind
direction
speed
KPH
gust
KPH
rain 1hr
cm
rain 24hr
cm
rain mn
cm
humidity
%
barometer
mb
20260503201513 17 275 6.4 6.4 0.00 0.00 0.00 32 1051.0
20260503201010 17 291 9.7 16.1 0.00 0.00 0.00 32 1051.1
20260503200506 17 135 6.4 9.7 0.00 0.00 0.00 32 1051.3
20260503200003 16 276 4.8 4.8 0.00 0.00 0.00 32 1051.4
20260503195500 17 228 11.3 14.5 0.00 0.00 0.00 28 1051.7
20260503194956 17 310 6.4 12.9 0.00 0.00 0.00 35 1051.5
20260503194454 17 328 9.7 11.3 0.00 0.00 0.00 28 1051.8
20260503193949 17 192 6.4 9.7 0.00 0.00 0.00 30 1051.5
20260503193445 16 328 6.4 17.7 0.00 0.00 0.00 34 1051.9
20260503192940 17 282 9.7 22.5 0.00 0.00 0.00 35 1052.1
20260503192437 17 295 3.2 9.7 0.00 0.00 0.00 31 1052.1
20260503191932 17 288 9.7 11.3 0.00 0.00 0.00 35 1052.1
20260503191431 16 282 4.8 14.5 0.00 0.00 0.00 36 1052.0
20260503190927 16 316 16.1 20.9 0.00 0.00 0.00 32 1052.1
20260503190424 16 193 1.6 11.3 0.00 0.00 0.00 36 1052.4
20260503185921 16 109 6.4 16.1 0.00 0.00 0.00 30 1052.3
20260503185418 16 258 3.2 9.7 0.00 0.00 0.00 30 1052.3
20260503184916 16 215 4.8 16.1 0.00 0.00 0.00 30 1052.4
20260503184413 16 280 4.8 11.3 0.00 0.00 0.00 33 1052.6
20260503183910 16 300 9.7 16.1 0.00 0.00 0.00 32 1052.5
20260503183406 16 252 6.4 11.3 0.00 0.00 0.00 33 1052.5
20260503182903 15 123 9.7 14.5 0.00 0.00 0.00 33 1052.6
20260503182403 16 224 8.0 14.5 0.00 0.00 0.00 35 1052.8
20260503181859 16 162 6.4 9.7 0.00 0.00 0.00 34 1052.9
20260503181356 16 249 4.8 9.7 0.00 0.00 0.00 35 1053.0
20260503180853 15 117 8.0 14.5 0.00 0.00 0.00 37 1053.0
20260503180351 15 123 9.7 11.3 0.00 0.00 0.00 32 1053.2
20260503175847 15 252 4.8 6.4 0.00 0.00 0.00 34 1053.1
20260503175345 15 189 6.4 11.3 0.00 0.00 0.00 32 1053.4
20260503174840 15 157 6.4 9.7 0.00 0.00 0.00 35 1053.6
20260503174339 15 281 6.4 9.7 0.00 0.00 0.00 33 1053.3
20260503173834 15 256 4.8 4.8 0.00 0.00 0.00 40 1053.5
20260503173331 15 223 4.8 14.5 0.00 0.00 0.00 31 1053.5
20260503172827 15 135 6.4 6.4 0.00 0.00 0.00 33 1053.6
20260503172325 15 112 8.0 11.3 0.00 0.00 0.00 33 1053.6
20260503171821 15 112 8.0 11.3 0.00 0.00 0.00 33 1053.9
20260503171318 15 295 4.8 4.8 0.00 0.00 0.00 32 1053.9
20260503170815 15 300 6.4 6.4 0.00 0.00 0.00 31 1054.1
20260503170312 15 316 4.8 6.4 0.00 0.00 0.00 31 1054.2
20260503150704 13 187 0.0 4.8 0.00 0.00 0.00 34 1055.1
20260503150200 13 141 4.8 4.8 0.00 0.00 0.00 33 1055.1
20260503140124 11 245 1.6 4.8 0.00 0.00 0.00 52 1055.4
20260503131054 7 225 0.0 3.2 0.00 0.00 0.00 70 1055.3
20260503130550 7 217 3.2 3.2 0.00 0.00 0.00 69 1055.0
20260503110441 0 313 0.0 0.0 0.00 0.00 0.00 96 1054.3
20260503090332 -17 0.0 0.0 0.00 0.00 0.00 1053.7
20260503081300 0 313 0.0 0.0 0.00 0.00 0.00 94 1053.4
20260503080756 0 313 0.0 0.0 0.00 0.00 0.00 94 1053.6
20260503080254 0 313 0.0 0.0 0.00 0.00 0.00 94 1053.6
20260503072730 0 313 0.0 0.0 0.00 0.00 0.00 93 1053.6
20260503072226 0 313 0.0 0.0 0.00 0.00 0.00 93 1053.2
20260503071723 0 313 0.0 0.0 0.00 0.00 0.00 93 1053.3
20260503071220 1 313 0.0 0.0 0.00 0.00 0.00 93 1053.4
20260503070717 0 313 0.0 0.0 0.00 0.00 0.00 93 1053.3
20260503070215 0 313 0.0 0.0 0.00 0.00 0.00 93 1053.5
20260503060139 2 313 0.0 0.0 0.00 0.00 0.00 88 1053.7
20260503054626 2 313 0.0 0.0 0.00 0.00 0.00 89 1053.6
20260503054123 2 313 0.0 0.0 0.00 0.00 0.00 90 1053.5
20260503053621 2 313 0.0 0.0 0.00 0.00 0.00 90 1053.3
20260503053120 2 313 0.0 0.0 0.00 0.00 0.00 89 1053.5
20260503052616 2 313 0.0 0.0 0.00 0.00 0.00 89 1053.6
20260503052112 2 313 0.0 0.0 0.00 0.00 0.00 90 1053.5
20260503051607 2 313 0.0 0.0 0.00 0.00 0.00 88 1053.4
20260503051106 2 313 0.0 0.0 0.00 0.00 0.00 88 1053.3
20260503050602 3 313 0.0 0.0 0.00 0.00 0.00 88 1053.5
20260503050059 3 313 0.0 0.0 0.00 0.00 0.00 86 1053.3
20260503045555 3 313 0.0 0.0 0.00 0.00 0.00 87 1053.5
20260503045053 3 313 0.0 0.0 0.00 0.00 0.00 87 1053.4
20260503044549 3 313 0.0 0.0 0.00 0.00 0.00 84 1053.6
20260503044047 3 313 0.0 0.0 0.00 0.00 0.00 86 1053.6
20260503043543 3 313 0.0 0.0 0.00 0.00 0.00 86 1053.7
20260503043040 3 313 0.0 0.0 0.00 0.00 0.00 86 1053.4
20260503042537 3 313 0.0 0.0 0.00 0.00 0.00 87 1053.4
20260503042033 3 313 0.0 0.0 0.00 0.00 0.00 86 1053.2
20260503041530 3 313 0.0 0.0 0.00 0.00 0.00 87 1053.4
20260503041028 3 313 0.0 0.0 0.00 0.00 0.00 86 1053.1
20260503040525 3 313 0.0 0.0 0.00 0.00 0.00 87 1053.2
20260503040022 3 313 0.0 0.0 0.00 0.00 0.00 87 1053.1
20260503035519 3 313 0.0 0.0 0.00 0.00 0.00 87 1053.3
20260503035016 3 313 0.0 0.0 0.00 0.00 0.00 87 1053.3
20260503034514 3 313 0.0 0.0 0.00 0.00 0.00 88 1053.1
20260503034010 3 313 0.0 0.0 0.00 0.00 0.00 88 1053.1
20260503033508 4 313 0.0 0.0 0.00 0.00 0.00 88 1053.1
20260503033006 4 313 0.0 0.0 0.00 0.00 0.00 88 1053.1
20260503032504 4 313 0.0 0.0 0.00 0.00 0.00 89 1053.1
20260503032002 4 313 0.0 0.0 0.00 0.00 0.00 88 1053.0
20260503031459 4 313 0.0 0.0 0.00 0.00 0.00 88 1052.9
20260503030955 4 313 0.0 0.0 0.00 0.00 0.00 88 1052.9
20260503030452 5 313 0.0 0.0 0.00 0.00 0.00 88 1053.0
20260503025949 5 313 0.0 0.0 0.00 0.00 0.00 88 1052.9
20260503025446 5 313 0.0 0.0 0.00 0.00 0.00 88 1053.2
20260503024943 5 313 0.0 0.0 0.00 0.00 0.00 88 1053.0
20260503024439 5 313 0.0 0.0 0.00 0.00 0.00 89 1052.9
20260503023937 5 313 0.0 0.0 0.00 0.00 0.00 88 1052.8
20260503023434 5 313 0.0 0.0 0.00 0.00 0.00 88 1052.9
20260503022930 5 313 0.0 0.0 0.00 0.00 0.00 88 1052.6
20260503022425 5 313 0.0 0.0 0.00 0.00 0.00 88 1052.7
20260503021922 5 313 0.0 0.0 0.00 0.00 0.00 87 1052.6
20260503021418 5 313 0.0 0.0 0.00 0.00 0.00 86 1052.5
20260503020916 5 313 0.0 0.0 0.00 0.00 0.00 85 1052.4
20260503020414 5 313 0.0 0.0 0.00 0.00 0.00 85 1052.4
20260503015909 6 313 0.0 0.0 0.00 0.00 0.00 84 1052.2
20260503015407 6 313 0.0 0.0 0.00 0.00 0.00 83 1052.0
20260503014902 6 313 0.0 0.0 0.00 0.00 0.00 83 1052.1
20260503014400 6 313 0.0 0.0 0.00 0.00 0.00 82 1052.0
20260503013858 6 313 0.0 0.0 0.00 0.00 0.00 82 1052.0
20260503013354 6 313 0.0 0.0 0.00 0.00 0.00 79 1052.1
20260503012851 7 313 0.0 0.0 0.00 0.00 0.00 76 1051.9
20260503012349 7 313 0.0 0.0 0.00 0.00 0.00 75 1052.0
20260503011846 7 313 0.0 0.0 0.00 0.00 0.00 70 1051.7
20260503011343 8 313 0.0 0.0 0.00 0.00 0.00 73 1051.8
20260503010839 8 313 0.0 0.0 0.00 0.00 0.00 73 1051.8
20260503010336 8 313 0.0 0.0 0.00 0.00 0.00 71 1051.8
20260503005833 8 313 0.0 0.0 0.00 0.00 0.00 68 1051.8
20260503005331 8 313 0.0 0.0 0.00 0.00 0.00 70 1051.7
20260503004826 9 313 0.0 0.0 0.00 0.00 0.00 69 1051.7
20260503004324 9 313 0.0 0.0 0.00 0.00 0.00 67 1051.5
20260503003822 9 313 0.0 0.0 0.00 0.00 0.00 59 1051.7
20260503003318 10 313 0.0 0.0 0.00 0.00 0.00 64 1051.7
20260503002815 10 313 0.0 0.0 0.00 0.00 0.00 57 1051.4
20260503002312 10 313 0.0 0.0 0.00 0.00 0.00 63 1051.2
20260503001809 10 313 0.0 0.0 0.00 0.00 0.00 54 1051.2
20260503001305 10 313 0.0 0.0 0.00 0.00 0.00 54 1051.0
20260503000803 11 313 0.0 0.0 0.00 0.00 0.00 53 1051.1
20260503000300 11 313 0.0 0.0 0.00 0.00 0.00 51 1050.8
20260502235757 11 313 0.0 0.0 0.00 0.00 0.00 51 1050.7
20260502235254 12 313 0.0 0.0 0.00 0.00 0.00 48 1050.9
20260502234750 11 313 0.0 0.0 0.00 0.00 0.00 52 1050.8
20260502234248 11 313 0.0 0.0 0.00 0.00 0.00 50 1050.8
20260502233744 11 311 0.0 0.0 0.00 0.00 0.00 48 1050.8
20260502233241 12 319 0.0 0.0 0.00 0.00 0.00 51 1050.6
20260502232736 13 316 0.0 0.0 0.00 0.00 0.00 43 1050.7
20260502232234 13 316 0.0 1.6 0.00 0.00 0.00 43 1050.7
20260502231730 13 309 1.6 3.2 0.00 0.00 0.00 45 1050.6
20260502231228 14 294 1.6 1.6 0.00 0.00 0.00 44 1050.6
20260502230727 14 302 0.0 0.0 0.00 0.00 0.00 44 1050.6
20260502230225 13 37 0.0 6.4 0.00 0.00 0.00 48 1050.8
20260502225720 12 318 0.0 3.2 0.00 0.00 0.00 54 1050.9
20260502225218 13 263 1.6 1.6 0.00 0.00 0.00 45 1050.9
20260502224714 13 299 1.6 3.2 0.00 0.00 0.00 46 1050.8
20260502224211 13 298 3.2 4.8 0.00 0.00 0.00 48 1050.8
20260502223708 12 309 1.6 4.8 0.00 0.00 0.00 49 1050.8
20260502223206 12 309 1.6 4.8 0.00 0.00 0.00 49 1050.8
20260502222704 12 308 1.6 3.2 0.00 0.00 0.00 51 1050.7
20260502222200 12 288 3.2 3.2 0.00 0.00 0.00 51 1051.1
20260502221656 12 287 4.8 4.8 0.00 0.00 0.00 49 1050.9
20260502221153 12 316 0.0 3.2 0.00 0.00 0.00 51 1050.9
20260502220649 12 73 3.2 3.2 0.00 0.00 0.00 51 1051.0
20260502220145 12 307 4.8 4.8 0.00 0.00 0.00 48 1050.9
20260502215643 12 293 6.4 9.7 0.00 0.00 0.00 47 1051.0
20260502215139 12 305 6.4 6.4 0.00 0.00 0.00 48 1050.6
20260502214637 12 323 4.8 11.3 0.00 0.00 0.00 50 1050.7
20260502214134 12 318 3.2 6.4 0.00 0.00 0.00 50 1050.7
20260502213631 12 302 4.8 6.4 0.00 0.00 0.00 50 1050.6
20260502213128 12 299 1.6 4.8 0.00 0.00 0.00 50 1050.9
20260502212627 12 312 3.2 6.4 0.00 0.00 0.00 53 1050.6
20260502212125 12 270 1.6 3.2 0.00 0.00 0.00 52 1050.8
20260502211625 11 318 0.0 3.2 0.00 0.00 0.00 56 1050.6
20260502211123 11 325 4.8 9.7 0.00 0.00 0.00 50 1050.7
20260502210621 12 326 4.8 9.7 0.00 0.00 0.00 51 1050.9
20260502210117 11 302 1.6 1.6 0.00 0.00 0.00 51 1050.8
20260502205614 11 280 6.4 6.4 0.00 0.00 0.00 52 1050.6
20260502205111 11 310 0.0 4.8 0.00 0.00 0.00 52 1051.0
20260502204608 11 293 1.6 9.7 0.00 0.00 0.00 53 1051.0
20260502204105 11 287 0.0 6.4 0.00 0.00 0.00 54 1050.9
20260502203602 11 315 1.6 1.6 0.00 0.00 0.00 52 1050.8
20260502203100 11 267 6.4 6.4 0.00 0.00 0.00 51 1051.0
20260502202555 12 296 4.8 4.8 0.00 0.00 0.00 51 1051.1
20260502202054 12 290 3.2 4.8 0.00 0.00 0.00 50 1051.1